Location: Bonneuil
(46.1010°N, 2.9693°E)
Time: 00:01:47
(UTC+00:00)

ISS - Pass Details

Date: 05 March 2021
Orbit: 418 x 422 km, 51.6° (Epoch: 10 April)

Event Time Altitude Azimuth Distance (km) Brightness Sun altitude
Exits shadow 03:53:05 24° 35° (NE) 923 -1.5 -25.9°
Drops below altitude 10° 03:54:56 10° 62° (ENE) 1,501 0.1 -25.6°
Sets 03:57:11 0° 73° (ENE) 2,359 1.4 -25.2°
